カタログに戻る

HIMAWARI 1 AKM

運用中MEO
NORAD 59985·ROCKET BODY·🇯🇵 Japan

打ち上げ Jul 14, 1977 から Cape Canaveral Space Force Station

Loading…

次のパス (今後24時間)

TLE

最新Source: Space-Track

元期: Sep 14, 2026, 00:41 UTC

1 59985U 77065GQ  26257.02872001 -.00000320  00000-0  00000-0 0  9999
2 59985   3.9806 272.0562 0275278 126.3519 235.8973  1.01125675 47349

AllMySatでHIMAWARI 1 AKMをリアルタイム追跡

Download on the App Store